Date String (YYYY-MM-DD hh:mm:ss) UTC,Instrument flags,Ambient pressure (hPa),Sample flow (lpm),Bypass flow (lpm),Sample temperature (°C),Ambient temperature (°C),ASC tube jacket temperature (°C),LED temperature (°C),Box temperature (°C),Sample RH (%),Span deviation,Mass concentration (μg/m³),Mass concentration (μg/m³),Mass concentration (μg/m³)
DateTimeUTC,F1_M11,P_M11,Q1_M11,Q2_M11,T1_M11,T2_M11,T3_M11,T4_M11,T5_M11,U1_M11,ZSPAN_M11,X0_M11,X2_M11,X1_M11
2022-04-07 15:00:00,,0834.4,4.99,0.00,22.2,21.7,00.0,30.9,24.0,07.3,0000.0,0004.89,0001.25,0000.58
2022-04-07 15:01:00,,0834.4,5.00,0.00,22.2,21.7,00.0,30.9,24.0,07.3,0000.0,0005.46,0001.27,0000.58
2022-04-07 15:02:00,,0834.4,5.00,0.00,22.2,21.7,00.0,30.9,24.0,07.3,0000.0,0005.29,0001.31,0000.58
2022-04-07 15:03:00,,0834.4,4.99,0.00,22.3,21.7,00.0,31.0,24.1,07.2,0000.0,0004.71,0001.32,0000.59
2022-04-07 15:04:00,,0834.4,5.00,0.00,22.3,21.8,00.0,31.0,24.1,07.1,0000.0,0004.67,0001.34,0000.60
2022-04-07 15:05:00,,0834.4,5.00,0.00,22.3,21.8,00.0,31.0,24.1,07.1,0000.0,0005.16,0001.36,0000.60
2022-04-07 15:06:00,,0834.4,4.99,0.00,22.3,21.8,00.0,31.0,24.1,07.2,0000.0,0005.78,0001.31,0000.60
2022-04-07 15:07:00,,0834.4,5.01,0.00,22.3,21.8,00.0,31.1,24.1,07.2,0000.0,0005.63,0001.31,0000.61
2022-04-07 15:08:00,,0834.4,5.01,0.00,22.3,21.8,00.0,31.1,24.2,07.1,0000.0,0005.55,0001.33,0000.62
2022-04-07 15:09:00,,0834.5,4.99,0.00,22.4,21.8,00.0,31.1,24.2,07.0,0000.0,0005.55,0001.33,0000.62
2022-04-07 15:10:00,,0834.6,5.01,0.00,22.4,21.8,00.0,31.1,24.2,07.0,0000.0,0005.73,0001.33,0000.63
2022-04-07 15:11:00,,0834.6,4.98,0.00,22.4,21.8,00.0,31.1,24.2,07.0,0000.0,0006.40,0001.34,0000.63
2022-04-07 15:12:00,,0834.6,5.00,0.00,22.4,21.9,00.0,31.1,24.2,07.0,0000.0,0005.81,0001.35,0000.64
2022-04-07 15:13:00,,0834.6,5.01,0.00,22.4,21.9,00.0,31.2,24.3,07.0,0000.0,0005.22,0001.34,0000.64
2022-04-07 15:14:00,,0834.4,4.99,0.00,22.4,21.9,00.0,31.2,24.3,06.9,0000.0,0005.31,0001.35,0000.64
2022-04-07 15:15:00,,0834.4,5.01,0.00,22.5,21.9,00.0,31.2,24.3,06.8,0000.0,0005.97,0001.35,0000.64
2022-04-07 15:16:00,,0834.4,4.99,0.00,22.5,21.9,00.0,31.2,24.3,06.9,0000.0,0005.94,0001.39,0000.64
2022-04-07 15:17:00,,0834.4,5.00,0.00,22.5,21.9,00.0,31.2,24.3,06.9,0000.0,0005.27,0001.40,0000.64
2022-04-07 15:18:00,,0834.4,5.01,0.00,22.5,21.9,00.0,31.3,24.3,06.9,0000.0,0006.44,0001.44,0000.65
2022-04-07 15:19:00,,0834.4,5.00,0.00,22.5,21.9,00.0,31.3,24.3,06.8,0000.0,0006.95,0001.49,0000.65
2022-04-07 15:20:00,,0834.4,4.99,0.00,22.6,21.9,00.0,31.3,24.4,06.9,0000.0,0007.07,0001.52,0000.66
2022-04-07 15:21:00,,0834.5,5.00,0.00,22.6,22.0,00.0,31.3,24.4,07.0,0000.0,0006.80,0001.51,0000.66
2022-04-07 15:22:00,,0834.5,5.00,0.00,22.6,22.0,00.0,31.3,24.4,07.1,0000.0,0006.88,0001.50,0000.66
2022-04-07 15:23:00,,0834.5,5.00,0.00,22.6,22.0,00.0,31.3,24.4,07.0,0000.0,0007.37,0001.51,0000.65
2022-04-07 15:24:00,,0834.3,5.01,0.00,22.6,22.0,00.0,31.4,24.4,06.8,0000.0,0007.78,0001.57,0000.66
2022-04-07 15:25:00,,0834.4,4.98,0.00,22.6,22.0,00.0,31.4,24.4,07.0,0000.0,0008.58,0001.59,0000.66
2022-04-07 15:26:00,,0834.4,5.01,0.00,22.6,22.0,00.0,31.4,24.4,06.8,0000.0,0008.63,0001.57,0000.66
2022-04-07 15:27:00,,0834.4,5.01,0.00,22.7,22.0,00.0,31.4,24.4,06.8,0000.0,0008.60,0001.57,0000.66
2022-04-07 15:28:00,,0834.4,5.00,0.00,22.7,22.0,00.0,31.4,24.5,06.7,0000.0,0009.53,0001.59,0000.66
2022-04-07 15:29:00,,0834.5,4.99,0.00,22.7,22.0,00.0,31.4,24.5,06.6,0000.0,0009.80,0001.57,0000.66
2022-04-07 15:30:00,,0834.5,5.00,0.00,22.7,22.0,00.0,31.5,24.5,06.6,0000.0,0009.44,0001.53,0000.66
2022-04-07 15:31:00,,0834.5,5.00,0.00,22.7,22.0,00.0,31.5,24.5,06.7,0000.0,0009.33,0001.45,0000.65
2022-04-07 15:32:00,,0834.5,4.98,0.00,22.7,22.0,00.0,31.5,24.5,06.8,0000.0,0009.32,0001.45,0000.65
2022-04-07 15:33:00,,0834.5,5.00,0.00,22.7,22.0,00.0,31.5,24.5,06.8,0000.0,0009.85,0001.48,0000.66
2022-04-07 15:34:00,,0834.4,5.00,0.00,22.7,22.1,00.0,31.5,24.5,06.8,0000.0,0009.48,0001.48,0000.67
2022-04-07 15:35:00,,0834.4,5.01,0.00,22.8,22.1,00.0,31.5,24.5,06.8,0000.0,0009.72,0001.45,0000.67
2022-04-07 15:36:00,,0834.4,5.00,0.00,22.8,22.1,00.0,31.5,24.6,06.9,0000.0,0009.19,0001.34,0000.66
2022-04-07 15:37:00,,0834.4,5.01,0.00,22.8,22.1,00.0,31.5,24.6,06.8,0000.0,0008.45,0001.37,0000.67
2022-04-07 15:38:00,,0834.4,4.99,0.00,22.8,22.2,00.0,31.6,24.6,06.8,0000.0,0008.42,0001.36,0000.67
2022-04-07 15:39:00,,0834.4,5.00,0.00,22.8,22.2,00.0,31.6,24.6,06.8,0000.0,0007.94,0001.32,0000.68
2022-04-07 15:40:00,,0834.4,5.01,0.00,22.8,22.1,00.0,31.6,24.6,06.9,0000.0,0007.14,0001.33,0000.68
2022-04-07 15:41:00,,0834.4,5.01,0.00,22.8,22.1,00.0,31.6,24.5,06.8,0000.0,0007.82,0001.36,0000.68
2022-04-07 15:42:00,,0834.4,5.00,0.00,22.8,22.1,00.0,31.6,24.5,06.8,0000.0,0008.07,0001.42,0000.69
2022-04-07 15:43:00,,0834.4,5.00,0.00,22.8,22.1,00.0,31.6,24.5,06.9,0000.0,0008.74,0001.46,0000.70
2022-04-07 15:44:00,,0834.4,5.01,0.00,22.8,22.0,00.0,31.6,24.6,06.8,0000.0,0008.32,0001.48,0000.71
2022-04-07 15:45:00,,0834.4,4.98,0.00,22.8,22.0,00.0,31.6,24.6,06.6,0000.0,0008.43,0001.48,0000.71
2022-04-07 15:46:00,,0834.3,5.01,0.00,22.8,22.0,00.0,31.7,24.5,06.7,0000.0,0008.15,0001.46,0000.70
2022-04-07 15:47:00,,0834.2,5.01,0.00,22.8,22.0,00.0,31.7,24.5,06.7,0000.0,0007.94,0001.51,0000.71
2022-04-07 15:48:00,,0834.1,5.00,0.00,22.8,22.0,00.0,31.7,24.5,06.7,0000.0,0008.26,0001.55,0000.71
2022-04-07 15:49:00,,0834.0,5.00,0.00,22.8,22.0,00.0,31.7,24.5,06.7,0000.0,0008.70,0001.53,0000.71
2022-04-07 15:50:00,,0834.1,5.01,0.00,22.8,22.0,00.0,31.7,24.5,06.6,0000.0,0008.35,0001.52,0000.72
2022-04-07 15:51:00,,0834.1,4.98,0.00,22.8,22.0,00.0,31.7,24.5,06.7,0000.0,0008.45,0001.53,0000.72
2022-04-07 15:52:00,,0834.2,5.01,0.00,22.8,22.0,00.0,31.7,24.6,06.7,0000.0,0007.87,0001.47,0000.71
2022-04-07 15:53:00,,0834.3,5.01,0.00,22.8,22.1,00.0,31.7,24.6,06.6,0000.0,0007.73,0001.47,0000.72
2022-04-07 15:54:00,,0834.2,5.01,0.00,22.8,22.1,00.0,31.7,24.6,06.8,0000.0,0007.08,0001.53,0000.73
2022-04-07 15:55:00,,0834.1,4.98,0.00,22.9,22.1,00.0,31.7,24.6,07.0,0000.0,0007.94,0001.61,0000.73
2022-04-07 15:56:00,,0834.1,5.00,0.00,22.9,22.1,00.0,31.7,24.7,07.0,0000.0,0008.05,0001.65,0000.73
2022-04-07 15:57:00,,0834.1,5.00,0.00,22.9,22.2,00.0,31.7,24.7,07.0,0000.0,0008.21,0001.72,0000.75
2022-04-07 15:58:00,,0834.1,5.01,0.00,22.9,22.2,00.0,31.7,24.7,07.0,0000.0,0008.57,0001.73,0000.75
2022-04-07 15:59:00,,0834.1,4.99,0.00,22.9,22.1,00.0,31.7,24.7,06.6,0000.0,0008.48,0001.74,0000.75
